[[[{"header":{"parameterUnit":"kt","parameterCategory":2,"dx":1,"dy":1,"la1":30.253999710083008,"la2":30.299108505249023,"lo1":-89.0895004272461,"lo2":-89.04439544677734,"nx":28,"ny":28,"refTime":"2022-09-18T21:00:00:Z","depth":"0","parameterNumber":2,"parameterNumberName":"U-component_of_CURRENTS"},"data":[-0.0353,-0.0254,-0.0209,-0.0176,-0.0194,-0.021,-0.025,-0.0199,-0.0068,0.0349,0.0807,0.104,0.1658,0.237,0.2447,0.2098,0.1859,0.1897,0.1608,0.1415,0.1331,0.1252,0.1399,0.2057,0.2059,0.2068,0.2072,0.2075,-0.0384,-0.0302,-0.0272,-0.0266,-0.029,-0.0342,-0.0451,-0.046,-0.047,-0.0311,-0.0265,0.0325,0.0579,0.0626,0.0937,0.0871,0.0532,0.0822,0.0973,0.0799,0.0259,0.0382,0.0834,0.0834,0.0834,0.0833,0.0833,0.0833,-0.0395,-0.0367,-0.0339,-0.0341,-0.0377,-0.0451,-0.0491,-0.0597,-0.0664,-0.0637,-0.0755,-0.0538,-0.027,-0.0237,-0.0486,-0.0306,-0.0462,-0.0179,-0.0024,-0.0047,-0.0021,-0.0617,-0.0443,-0.0447,-0.045,-0.0453,-0.0456,0,-0.0425,-0.0398,-0.0436,-0.0427,-0.0466,-0.0558,-0.0668,-0.0715,-0.0892,-0.0891,-0.0942,-0.0931,-0.0928,-0.0778,-0.0843,-0.0957,-0.0859,-0.104,-0.0855,-0.0195,-0.0077,-0.017,-0.0906,-0.076,-0.0766,-0.077,-0.0773,-0.0775,-0.0434,-0.0436,-0.0512,-0.0517,-0.0584,-0.0682,-0.0733,-0.0885,-0.0939,-0.1026,-0.1036,-0.1053,-0.1047,-0.1162,-0.1213,-0.1305,-0.1284,-0.117,-0.1145,-0.0898,-0.0732,-0.0708,-0.0788,-0.0837,-0.0829,-0.0822,-0.0817,0,-0.0435,-0.0487,-0.055,-0.0692,-0.0723,-0.0779,-0.0918,-0.0961,-0.102,-0.1045,-0.1051,-0.1101,-0.1148,-0.1261,-0.1413,-0.1481,-0.1416,-0.1615,-0.1307,-0.1277,-0.099,-0.0833,-0.0598,-0.0665,-0.153,-0.1527,-0.1525,0,-0.0502,-0.0554,-0.067,-0.0695,-0.0772,-0.0883,-0.0947,-0.0985,-0.1058,-0.1101,-0.1121,-0.1162,-0.1286,-0.1359,-0.1483,-0.1561,-0.1618,-0.1639,-0.1647,-0.1408,-0.1378,-0.1177,-0.101,-0.1779,-0.1779,-0.1778,-0.1778,0,-0.0516,-0.0641,-0.0696,-0.072,-0.084,-0.0887,-0.0956,-0.1009,-0.1064,-0.1093,-0.1093,-0.1232,-0.1296,-0.1399,-0.1534,-0.1546,-0.1656,-0.1687,-0.1663,-0.1656,-0.1414,-0.1383,-0.113,-0.1778,-0.1778,-0.1778,-0.1778,0,-0.057,-0.0641,-0.0704,-0.0811,-0.0846,-0.0881,-0.095,-0.1007,-0.1055,-0.1098,-0.1182,-0.125,-0.1374,-0.1426,-0.1581,-0.1561,-0.1637,-0.1703,-0.1705,-0.1589,-0.1602,-0.1347,-0.1287,-0.1068,-0.173,-0.173,-0.1729,0,-0.0546,-0.0627,-0.0689,-0.0759,-0.0801,-0.0851,-0.0896,-0.0965,-0.101,-0.1069,-0.1201,-0.1305,-0.1403,-0.1477,-0.1543,-0.1638,-0.1687,-0.1671,-0.1713,-0.1713,-0.16,-0.1601,-0.1317,-0.1298,-0.1725,-0.1725,-0.1726,0,-0.0509,-0.0613,-0.0624,-0.0665,-0.0743,-0.082,-0.0846,-0.0948,-0.0976,-0.1088,-0.1161,-0.1343,-0.1415,-0.1478,-0.1593,-0.1641,-0.168,-0.1653,-0.1655,-0.1649,-0.1725,-0.161,-0.1602,-0.1703,-0.1704,-0.1704,-0.1722,0,-0.0503,-0.0544,-0.0584,-0.0672,-0.0738,-0.0803,-0.088,-0.093,-0.0987,-0.1059,-0.1199,-0.1327,-0.1445,-0.1507,-0.1561,-0.1653,-0.1643,-0.1661,-0.1649,-0.1671,-0.1676,-0.1679,-0.1641,-0.1641,-0.1641,-0.1641,0,0,-0.044,-0.0521,-0.0609,-0.0666,-0.0715,-0.0796,-0.0861,-0.0921,-0.1067,-0.1118,-0.1125,-0.1337,-0.1421,-0.1554,-0.1572,-0.162,-0.1622,-0.1612,-0.1663,-0.1665,-0.1667,-0.1673,-0.1676,-0.1641,-0.1641,-0.164,-0.164,0,-0.0472,-0.0506,-0.057,-0.0634,-0.0744,-0.0808,-0.0835,-0.0974,-0.1032,-0.1122,-0.119,-0.1291,-0.1413,-0.1493,-0.1545,-0.1611,-0.1626,-0.1638,-0.1628,-0.1661,-0.1663,-0.1666,-0.1672,-0.1675,-0.164,-0.164,-0.164,0,-0.0456,-0.0527,-0.0557,-0.0677,-0.0761,-0.082,-0.0891,-0.0982,-0.1027,-0.1112,-0.1196,-0.1281,-0.1368,-0.1458,-0.1503,-0.1498,-0.1613,-0.1603,-0.1605,-0.1584,-0.1616,-0.162,-0.1623,-0.1582,-0.1582,-0.1582,0,0,-0.0478,-0.0536,-0.0647,-0.069,-0.0734,-0.0856,-0.0915,-0.0967,-0.1065,-0.1108,-0.1187,-0.1259,-0.1342,-0.139,-0.1462,-0.1557,-0.1558,-0.1596,-0.1598,-0.16,-0.1581,-0.1614,-0.1617,-0.1581,-0.1581,-0.1581,0,0,-0.0499,-0.0615,-0.0633,-0.0678,-0.0783,-0.0923,-0.0966,-0.1025,-0.1122,-0.1109,-0.1192,-0.1214,-0.1307,-0.1347,-0.1325,-0.1463,-0.1451,-0.1459,-0.1444,-0.1448,-0.1451,-0.1407,-0.1347,0,0,0,0,0,-0.0586,-0.0601,-0.0615,-0.0634,-0.0777,-0.091,-0.0937,-0.1009,-0.1021,-0.1071,-0.1131,-0.1159,-0.1336,-0.1317,-0.1345,-0.139,-0.1568,-0.157,-0.1572,-0.1576,-0.158,-0.1583,0,0,0,0,0,0,-0.0594,-0.0616,-0.0616,-0.0745,-0.0778,-0.0909,-0.0916,-0.0939,-0.1017,-0.1023,-0.1147,-0.1162,-0.1205,-0.1308,-0.1332,-0.1373,-0.1339,-0.1569,-0.1571,-0.1573,-0.1578,-0.1581,-0.1583,0,0,0,0,0,-0.0601,-0.0618,-0.0813,-0.0748,-0.0776,-0.0881,-0.0914,-0.0934,-0.1011,-0.1091,-0.1111,-0.1059,-0.1205,-0.1229,-0.1323,-0.136,-0.1323,-0.1332,-0.157,-0.1572,-0.1573,-0.1579,0,0,0,0,0,0,-0.0606,-0.0663,-0.0823,-0.0836,-0.0722,-0.0878,-0.09,-0.0928,-0.1077,-0.1096,-0.1002,-0.1004,-0.1205,-0.1224,-0.1242,-0.1353,-0.131,-0.1319,-0.1324,-0.1571,-0.1572,-0.1574,0,0,0,0,0,0,-0.0654,-0.0674,-0.083,-0.0794,-0.0804,-0.0874,-0.0893,-0.0989,-0.1077,-0.0982,-0.0987,-0.1001,-0.116,-0.1221,-0.1235,-0.1385,-0.13,-0.1308,-0.1314,-0.1318,-0.1572,-0.1573,0,0,0,0,0,0,-0.0664,-0.0682,-0.0792,-0.08,-0.0809,-0.0973,-0.0961,-0.1097,-0.1061,-0.0974,-0.1056,-0.1054,-0.1155,-0.1172,-0.123,-0.1374,-0.1382,-0.13,-0.1306,-0.131,-0.1312,0,0,0,0,0,0,0,-0.0673,-0.0525,-0.0732,-0.0804,-0.0813,-0.0959,-0.0963,-0.0968,-0.106,-0.1059,-0.1057,-0.1055,-0.1251,-0.126,-0.127,-0.1364,0,0,-0.1299,-0.1303,0,0,0,0,0,0,0,0,-0.052,-0.0524,-0.0732,-0.0734,-0.0737,-0.0959,-0.0963,-0.0967,-0.106,-0.1059,-0.1057,-0.1056,-0.1253,-0.1261,-0.1269,0,0,0,0,0,0,0,0,0,0,0,0,0,0,0,-0.0733,-0.0734,0,-0.096,-0.0963,-0.0966,-0.106,-0.1059,-0.1058,-0.1056,-0.1255,-0.1262,-0.1268,0,0,0,0,0,0,0,0,0,0,0,0,0,0,0,0,0,0,0,0,0,0,0,0,0,0,0,0,0,0,0,0,0,0,0,0,0,0,0,0,0,0,0,0,0,0,0,0,0,0,0,0,0,0,0,0,0,0,0,0,0,0,0,0,0,0,0,0,0]}],[{"header":{"parameterUnit":"kt","parameterCategory":2,"dx":1,"dy":1,"la1":30.253999710083008,"la2":30.299108505249023,"lo1":-89.0895004272461,"lo2":-89.04439544677734,"nx":28,"ny":28,"refTime":"2022-09-18T21:00:00:Z","depth":"0","parameterNumber":3,"parameterNumberName":"V-component_of_CURRENTS"},"data":[-0.196,-0.1911,-0.1885,-0.1797,-0.1741,-0.1635,-0.1549,-0.1304,-0.105,-0.0471,-0.0029,0.0202,0.0117,-0.1449,-0.2521,-0.2875,-0.3366,-0.3462,-0.3792,-0.3324,-0.3313,-0.3302,-0.329,-0.3416,-0.3417,-0.4373,-0.438,-0.4386,-0.2013,-0.2023,-0.194,-0.1835,-0.1789,-0.1753,-0.1671,-0.1583,-0.1419,-0.1161,-0.1002,-0.0764,-0.1237,-0.173,-0.2339,-0.2761,-0.3169,-0.3009,-0.3204,-0.3397,-0.2833,-0.2798,-0.2821,-0.2821,-0.2821,-0.2821,-0.282,-0.282,-0.2126,-0.2084,-0.2063,-0.1895,-0.1851,-0.1792,-0.1742,-0.1721,-0.1673,-0.1529,-0.1571,-0.134,-0.1648,-0.2009,-0.2352,-0.2774,-0.2906,-0.2801,-0.29,-0.3043,-0.3231,-0.2641,-0.2632,-0.2633,-0.2634,-0.2634,-0.2635,0,-0.2217,-0.2192,-0.216,-0.2014,-0.1962,-0.1917,-0.1922,-0.1922,-0.2009,-0.194,-0.1871,-0.1834,-0.2045,-0.2127,-0.2399,-0.2547,-0.2856,-0.2695,-0.2854,-0.2885,-0.3053,-0.3297,-0.2727,-0.2682,-0.2683,-0.2684,-0.2685,-0.2685,-0.2338,-0.2273,-0.2201,-0.2139,-0.2106,-0.2068,-0.2065,-0.2156,-0.2136,-0.2154,-0.2138,-0.2176,-0.2123,-0.2297,-0.2492,-0.2668,-0.2853,-0.2714,-0.2727,-0.288,-0.3014,-0.3166,-0.3352,-0.2697,-0.2695,-0.2694,-0.2693,0,-0.2394,-0.2395,-0.2301,-0.2273,-0.2253,-0.2202,-0.2226,-0.2218,-0.2251,-0.2207,-0.2214,-0.2242,-0.2277,-0.2397,-0.2507,-0.2608,-0.2815,-0.2759,-0.2709,-0.2738,-0.2913,-0.3005,-0.3191,-0.341,-0.2836,-0.2835,-0.2835,0,-0.2494,-0.243,-0.2415,-0.236,-0.2301,-0.2311,-0.2261,-0.2267,-0.2302,-0.2268,-0.2286,-0.2273,-0.2391,-0.244,-0.2549,-0.266,-0.2656,-0.2773,-0.2813,-0.2766,-0.2763,-0.2855,-0.2942,-0.2791,-0.279,-0.279,-0.2789,0,-0.2563,-0.2491,-0.2442,-0.2402,-0.2371,-0.2349,-0.2373,-0.2328,-0.232,-0.2295,-0.2288,-0.2352,-0.2422,-0.2484,-0.2602,-0.2621,-0.2684,-0.274,-0.2814,-0.2817,-0.2737,-0.2733,-0.286,-0.2788,-0.2788,-0.2788,-0.2787,0,-0.2618,-0.2576,-0.2487,-0.2468,-0.2457,-0.2412,-0.2383,-0.235,-0.2345,-0.2333,-0.2375,-0.241,-0.2498,-0.2551,-0.2657,-0.2644,-0.2733,-0.2788,-0.2793,-0.2721,-0.2799,-0.2827,-0.2817,-0.296,-0.2912,-0.2912,-0.2912,0,-0.2724,-0.2637,-0.2624,-0.253,-0.249,-0.2501,-0.2462,-0.2433,-0.2402,-0.241,-0.2489,-0.2504,-0.2593,-0.2656,-0.2689,-0.2767,-0.2806,-0.2796,-0.2828,-0.2829,-0.282,-0.2815,-0.2757,-0.2824,-0.2914,-0.2914,-0.2914,0,-0.2802,-0.2755,-0.2732,-0.2707,-0.2652,-0.2621,-0.2557,-0.2546,-0.2527,-0.253,-0.2532,-0.2573,-0.2664,-0.2662,-0.2769,-0.278,-0.2821,-0.2796,-0.2795,-0.285,-0.2848,-0.2826,-0.2823,-0.283,-0.2829,-0.2828,-0.2916,0,-0.2811,-0.2802,-0.2771,-0.2756,-0.2722,-0.2674,-0.2661,-0.2652,-0.2664,-0.265,-0.267,-0.2715,-0.2747,-0.279,-0.2804,-0.2832,-0.2846,-0.2851,-0.2839,-0.2833,-0.2878,-0.2877,-0.2876,-0.2875,-0.2874,-0.2873,0,0,-0.2909,-0.2901,-0.295,-0.2891,-0.2871,-0.291,-0.2858,-0.2809,-0.2788,-0.2786,-0.2792,-0.2816,-0.2836,-0.286,-0.286,-0.287,-0.2872,-0.2835,-0.2838,-0.2835,-0.2831,-0.2873,-0.2873,-0.2872,-0.2871,-0.2871,-0.2871,0,-0.292,-0.2973,-0.2976,-0.2944,-0.2924,-0.2921,-0.293,-0.2908,-0.2875,-0.2823,-0.2872,-0.2923,-0.2855,-0.2881,-0.2874,-0.2862,-0.2861,-0.2866,-0.2828,-0.2833,-0.283,-0.2828,-0.287,-0.287,-0.2868,-0.2869,-0.2869,0,-0.2986,-0.3016,-0.3047,-0.3059,-0.3025,-0.2986,-0.3026,-0.2973,-0.2924,-0.2958,-0.2899,-0.2936,-0.2909,-0.288,-0.2874,-0.2867,-0.2848,-0.2849,-0.2852,-0.2787,-0.2788,-0.2786,-0.2784,-0.2812,-0.2812,-0.2813,0,0,-0.3002,-0.3039,-0.3075,-0.3071,-0.307,-0.3044,-0.3023,-0.3,-0.2974,-0.2949,-0.295,-0.2929,-0.2914,-0.2907,-0.2869,-0.2845,-0.2827,-0.2846,-0.2848,-0.2851,-0.279,-0.279,-0.2788,-0.2813,-0.2813,-0.2813,0,0,-0.2993,-0.3077,-0.31,-0.312,-0.3098,-0.3047,-0.3004,-0.3017,-0.2962,-0.2952,-0.2956,-0.295,-0.294,-0.291,-0.2923,-0.288,-0.2863,-0.2859,-0.2914,-0.2917,-0.2919,-0.2855,-0.2908,0,0,0,0,0,-0.3076,-0.3082,-0.3105,-0.3115,-0.3097,-0.3051,-0.3034,-0.3004,-0.3028,-0.2982,-0.2972,-0.297,-0.2901,-0.2911,-0.2902,-0.2916,-0.2823,-0.2821,-0.282,-0.2883,-0.2886,-0.2889,0,0,0,0,0,0,-0.3081,-0.3093,-0.3104,-0.3074,-0.3071,-0.305,-0.3054,-0.3039,-0.3029,-0.3026,-0.2969,-0.2967,-0.2935,-0.2915,-0.2907,-0.2921,-0.2911,-0.2822,-0.2821,-0.2819,-0.2884,-0.2887,-0.2889,0,0,0,0,0,-0.3084,-0.3094,-0.3098,-0.3068,-0.3066,-0.3035,-0.3054,-0.3042,-0.3006,-0.2986,-0.2979,-0.2999,-0.2933,-0.2928,-0.291,-0.2925,-0.2916,-0.2913,-0.2821,-0.282,-0.2819,-0.2886,0,0,0,0,0,0,-0.3087,-0.3015,-0.3094,-0.3089,-0.3099,-0.3031,-0.3026,-0.3045,-0.2964,-0.296,-0.3015,-0.3014,-0.2932,-0.2928,-0.2924,-0.2929,-0.292,-0.2917,-0.2916,-0.282,-0.2819,-0.2819,0,0,0,0,0,0,-0.3012,-0.3011,-0.3089,-0.313,-0.3127,-0.3028,-0.3024,-0.2991,-0.2965,-0.299,-0.299,-0.3016,-0.2991,-0.2927,-0.2924,-0.2865,-0.2924,-0.2921,-0.2919,-0.2918,-0.282,-0.2819,0,0,0,0,0,0,-0.3009,-0.3007,-0.3128,-0.3127,-0.3124,-0.304,-0.2995,-0.2994,-0.2957,-0.2994,-0.2962,-0.2965,-0.2995,-0.2987,-0.2925,-0.2867,-0.2866,-0.2924,-0.2922,-0.292,-0.2919,0,0,0,0,0,0,0,-0.3006,-0.3046,-0.3159,-0.3124,-0.3122,-0.3048,-0.3043,-0.3039,-0.2957,-0.296,-0.2962,-0.2964,-0.294,-0.2936,-0.2933,-0.2868,0,0,-0.2924,-0.2922,0,0,0,0,0,0,0,0,-0.3044,-0.3046,-0.3159,-0.316,-0.3161,-0.3048,-0.3044,-0.304,-0.2958,-0.2959,-0.2961,-0.2963,-0.2939,-0.2936,-0.2934,0,0,0,0,0,0,0,0,0,0,0,0,0,0,0,-0.3159,-0.316,0,-0.3047,-0.3044,-0.304,-0.2958,-0.2959,-0.2961,-0.2962,-0.2938,-0.2936,-0.2934,0,0,0,0,0,0,0,0,0,0,0,0,0,0,0,0,0,0,0,0,0,0,0,0,0,0,0,0,0,0,0,0,0,0,0,0,0,0,0,0,0,0,0,0,0,0,0,0,0,0,0,0,0,0,0,0,0,0,0,0,0,0,0,0,0,0,0,0,0]}]],[[{"header":{"parameterUnit":"kt","parameterCategory":2,"dx":1,"dy":1,"la1":30.253999710083008,"la2":30.299108505249023,"lo1":-89.0895004272461,"lo2":-89.04439544677734,"nx":28,"ny":28,"refTime":"2022-09-18T21:00:00:Z","depth":"2","parameterNumber":2,"parameterNumberName":"U-component_of_CURRENTS"},"data":[0.0527,0.052,0.0504,0.0532,0.0558,0.0593,0.0633,0.0653,0.0708,0.0765,0.0815,0.0964,0.1085,0.1005,0.1109,0.1126,0.1231,0.1129,0.1591,0.1399,0.1416,0.1528,0.1412,0,0,0,0,0,0.0502,0.051,0.0502,0.0524,0.0533,0.0553,0.062,0.068,0.0776,0.0878,0.1008,0.1,0.1112,0.1251,0.1451,0.1615,0.1589,0.1504,0.1336,0.1358,0.1377,0.1286,0.1167,0.1166,0.1165,0.1165,0,0,0.0478,0.0486,0.0482,0.0503,0.0522,0.0552,0.0631,0.0717,0.0836,0.0997,0.1109,0.1228,0.1355,0.164,0.173,0.1858,0.1971,0.1813,0.1813,0.1818,0.1756,0.1665,0.1758,0.1761,0.1763,0.1765,0.1767,0,0.0461,0.0457,0.0486,0.0491,0.0539,0.0607,0.0715,0.0779,0.0949,0.1053,0.1201,0.1333,0.1624,0.1728,0.1945,0.199,0.1972,0.1941,0.2186,0.1645,0.1542,0.151,0.1501,0.1629,0.1631,0.1633,0.1634,0.1635,0.0414,0.0446,0.049,0.051,0.0552,0.0668,0.073,0.0888,0.0969,0.1188,0.1234,0.1455,0.1566,0.1858,0.2023,0.2163,0.2081,0.1982,0.1878,0.1992,0.1966,0.1941,0.1918,0.1658,0.1655,0.1652,0.165,0,0.0383,0.0421,0.0487,0.0581,0.0609,0.0685,0.0839,0.0924,0.1062,0.1181,0.1242,0.1446,0.1611,0.1743,0.1917,0.197,0.2077,0.2073,0.1784,0.1752,0.192,0.1899,0.2151,0.2153,0.2155,0.2157,0.2158,0,0.0348,0.0419,0.0471,0.0514,0.0607,0.0705,0.0835,0.0906,0.1064,0.1148,0.1282,0.1381,0.1561,0.17,0.1744,0.1872,0.1921,0.1856,0.1857,0.1639,0.1616,0.1766,0.1748,0.1905,0.1904,0.1903,0.1903,0,0.0278,0.0389,0.0459,0.0502,0.0611,0.0681,0.0759,0.0893,0.0976,0.1134,0.1213,0.1384,0.147,0.1591,0.1652,0.1618,0.1839,0.1779,0.1788,0.1784,0.1669,0.1649,0.1902,0.1901,0.1901,0.1901,0.19,0,0.0254,0.0303,0.0395,0.0508,0.0549,0.0609,0.0768,0.0842,0.0984,0.1046,0.1164,0.123,0.1357,0.131,0.1495,0.1452,0.1479,0.1499,0.1505,0.1566,0.1485,0.1369,0.1444,0.1495,0.1492,0.1489,0.1487,0,0.0185,0.0273,0.0319,0.0423,0.0486,0.0562,0.0638,0.0731,0.0813,0.093,0.0985,0.1081,0.1054,0.1108,0.1188,0.1256,0.1319,0.1211,0.1425,0.1431,0.142,0.1533,0.1309,0.1403,0.1449,0.1453,0.1456,0,0.0144,0.0223,0.0251,0.03,0.0408,0.0464,0.054,0.0653,0.0726,0.08,0.0926,0.0961,0.1008,0.1052,0.106,0.1138,0.1244,0.1171,0.1177,0.1198,0.1469,0.1475,0.15,0.1296,0.1301,0.1305,0.1426,0,0.0127,0.019,0.0217,0.0303,0.0364,0.0431,0.0501,0.0561,0.0619,0.068,0.0785,0.0819,0.093,0.0907,0.0928,0.104,0.1056,0.1058,0.1082,0.114,0.1177,0.12,0.0937,0.0938,0.0939,0.0939,0,0,0.0094,0.0159,0.0206,0.0262,0.0323,0.0374,0.044,0.0487,0.059,0.0646,0.0647,0.0792,0.0806,0.0894,0.0905,0.0906,0.0981,0.0963,0.1094,0.111,0.1126,0.1165,0.1187,0.094,0.094,0.094,0.0941,0,0.0097,0.0151,0.0185,0.0244,0.0324,0.0371,0.0393,0.0483,0.0532,0.0619,0.0641,0.0691,0.0795,0.0827,0.086,0.0907,0.0965,0.0922,0.099,0.1093,0.1108,0.1123,0.1164,0.1183,0.0942,0.0942,0.0942,0,0.0096,0.0145,0.0165,0.0256,0.0309,0.0366,0.0398,0.0463,0.0514,0.0561,0.0647,0.0678,0.0743,0.0803,0.0837,0.0849,0.0978,0.0913,0.0913,0.097,0.1079,0.1096,0.1111,0.0918,0.0917,0.0917,0,0,0.0103,0.0141,0.022,0.0261,0.0294,0.037,0.0412,0.0455,0.0523,0.056,0.0617,0.068,0.0726,0.0772,0.0815,0.0886,0.0948,0.0906,0.0907,0.0908,0.0963,0.1073,0.1089,0.0915,0.0915,0.0915,0,0,0.0103,0.0178,0.0202,0.0258,0.0322,0.0401,0.0439,0.0481,0.056,0.0566,0.0621,0.0639,0.0699,0.0746,0.0717,0.0816,0.0818,0.0825,0.0777,0.0779,0.078,0.0831,0.0723,0,0,0,0,0,0.0132,0.0164,0.0184,0.0201,0.0311,0.0386,0.0404,0.0468,0.0486,0.0524,0.0583,0.0594,0.0743,0.0718,0.0734,0.0746,0.0891,0.0895,0.0899,0.0852,0.0854,0.0856,0,0,0,0,0,0,0.0139,0.0158,0.0184,0.0258,0.0283,0.0385,0.0402,0.0421,0.0485,0.0493,0.0582,0.0595,0.0626,0.0712,0.0726,0.0736,0.0718,0.0893,0.0896,0.09,0.0853,0.0855,0.0856,0,0,0,0,0,0.0145,0.0161,0.0317,0.0259,0.0281,0.037,0.0402,0.0419,0.0481,0.0537,0.0554,0.0528,0.0624,0.064,0.072,0.0729,0.0709,0.0714,0.0895,0.0898,0.09,0.0854,0,0,0,0,0,0,0.0149,0.0185,0.0324,0.0334,0.0255,0.0368,0.0387,0.0416,0.0523,0.0539,0.0481,0.0485,0.0623,0.0636,0.0648,0.0725,0.0701,0.0706,0.0709,0.0897,0.0899,0.0901,0,0,0,0,0,0,0.0177,0.0192,0.0329,0.0321,0.033,0.0365,0.0382,0.0433,0.0523,0.0462,0.0469,0.0482,0.0597,0.0633,0.0643,0.0722,0.0695,0.07,0.0703,0.0706,0.0899,0.0901,0,0,0,0,0,0,0.0185,0.0199,0.0319,0.0326,0.0335,0.0451,0.0412,0.0519,0.0523,0.0456,0.0524,0.0524,0.0593,0.0604,0.0639,0.0713,0.0719,0.0695,0.0699,0.0701,0.0703,0,0,0,0,0,0,0,0.0191,0.008,0.0262,0.0331,0.0338,0.0422,0.0425,0.0428,0.0523,0.0524,0.0524,0.0524,0.0667,0.0672,0.0678,0.0706,0,0,0.0695,0.0697,0,0,0,0,0,0,0,0,0.0076,0.0079,0.0263,0.0264,0.0266,0.0422,0.0425,0.0427,0.0524,0.0524,0.0524,0.0524,0.0668,0.0673,0.0677,0,0,0,0,0,0,0,0,0,0,0,0,0,0,0,0.0263,0.0264,0,0.0422,0.0424,0.0426,0.0524,0.0524,0.0524,0.0524,0.067,0.0673,0.0677,0,0,0,0,0,0,0,0,0,0,0,0,0,0,0,0,0,0,0,0,0,0,0,0,0,0,0,0,0,0,0,0,0,0,0,0,0,0,0,0,0,0,0,0,0,0,0,0,0,0,0,0,0,0,0,0,0,0,0,0,0,0,0,0,0,0,0,0,0]}],[{"header":{"parameterUnit":"kt","parameterCategory":2,"dx":1,"dy":1,"la1":30.253999710083008,"la2":30.299108505249023,"lo1":-89.0895004272461,"lo2":-89.04439544677734,"nx":28,"ny":28,"refTime":"2022-09-18T21:00:00:Z","depth":"2","parameterNumber":3,"parameterNumberName":"V-component_of_CURRENTS"},"data":[0.1486,0.137,0.1304,0.1151,0.1089,0.1093,0.1152,0.1221,0.119,0.1024,0.0843,0.0739,0.0476,0.0189,0.0059,-0.0043,0.0012,-0.0067,0.0046,0.0206,0.0223,0.0146,0.0186,0,0,0,0,0,0.153,0.1451,0.1344,0.1231,0.1165,0.1188,0.126,0.1317,0.135,0.1284,0.1237,0.08,0.0566,0.033,0.0051,-0.0078,-0.0031,-0.0126,-0.0024,-0.0006,0.001,0.0023,-0.017,-0.0171,-0.0171,-0.0172,0,0,0.1579,0.1521,0.1409,0.1311,0.1263,0.1281,0.1337,0.1381,0.1409,0.1384,0.1372,0.12,0.0984,0.0449,0.0266,0.0085,0.0138,0.0077,0.0089,0.0101,0.0113,0.0116,-0.0052,-0.0052,-0.0052,-0.0052,-0.0052,0,0.1581,0.1548,0.1477,0.1372,0.1354,0.1362,0.1393,0.1428,0.1468,0.1445,0.1411,0.1356,0.11,0.0822,0.048,0.0338,0.0295,0.0207,0.032,0.0347,0.0356,0.0366,0.0384,0.0231,0.0233,0.0235,0.0236,0.0236,0.158,0.1544,0.146,0.1405,0.1372,0.1395,0.1404,0.1433,0.1438,0.1427,0.1399,0.1301,0.1195,0.09,0.0663,0.0404,0.0434,0.0258,0.0292,0.0415,0.042,0.0437,0.0452,0.0256,0.0253,0.0251,0.025,0,0.1573,0.1509,0.1447,0.1385,0.1377,0.1383,0.139,0.14,0.1397,0.137,0.1365,0.1276,0.1146,0.0974,0.0817,0.0703,0.0544,0.0473,0.0486,0.0474,0.0465,0.0477,0.0306,0.0302,0.0299,0.0296,0.0294,0,0.1529,0.1503,0.142,0.1392,0.1369,0.1332,0.1345,0.1299,0.128,0.1262,0.1198,0.1176,0.1062,0.0963,0.0865,0.0702,0.0731,0.0607,0.0593,0.061,0.0606,0.0732,0.074,0.0672,0.0673,0.0674,0.0675,0,0.1526,0.1439,0.1385,0.1352,0.1265,0.1257,0.1251,0.1205,0.1189,0.1141,0.1142,0.1052,0.1059,0.096,0.0882,0.0917,0.0755,0.0792,0.0649,0.0644,0.06,0.0593,0.0676,0.0676,0.0676,0.0677,0.0677,0,0.1467,0.1408,0.1348,0.1266,0.1252,0.1243,0.1196,0.1178,0.1117,0.1097,0.1056,0.1048,0.0987,0.1005,0.0898,0.0955,0.0908,0.0874,0.0869,0.0772,0.0796,0.0683,0.0623,0.083,0.0832,0.0833,0.0835,0,0.1457,0.1386,0.1307,0.1276,0.123,0.117,0.1151,0.1101,0.1079,0.1065,0.1009,0.1024,0.1017,0.1055,0.1003,0.099,0.093,0.099,0.0899,0.0895,0.0817,0.077,0.0766,0.0652,0.0854,0.0852,0.085,0,0.1433,0.1299,0.1305,0.1269,0.119,0.1161,0.1136,0.1063,0.1058,0.1056,0.1022,0.1027,0.1041,0.1031,0.1038,0.1,0.096,0.103,0.1027,0.0969,0.0882,0.0807,0.0787,0.0989,0.0987,0.0986,0.0866,0,0.1332,0.1287,0.1283,0.1204,0.1176,0.115,0.1071,0.1087,0.1086,0.1038,0.1049,0.1065,0.1063,0.1077,0.1077,0.1047,0.1054,0.1066,0.1036,0.1038,0.0989,0.0977,0.1111,0.111,0.111,0.111,0,0,0.1335,0.1242,0.1176,0.1145,0.1101,0.1059,0.103,0.101,0.0989,0.0975,0.1022,0.1036,0.106,0.1029,0.1049,0.1074,0.106,0.1076,0.1054,0.1048,0.1042,0.0994,0.0983,0.1109,0.1109,0.1109,0.1109,0,0.125,0.1201,0.1176,0.113,0.1067,0.1012,0.1019,0.0954,0.0958,0.0979,0.0982,0.1014,0.1068,0.1044,0.1037,0.1072,0.1056,0.1111,0.1091,0.1053,0.1047,0.1042,0.0994,0.0985,0.1108,0.1108,0.1108,0,0.1199,0.1111,0.1084,0.0981,0.0951,0.0914,0.0874,0.0867,0.0845,0.0866,0.0924,0.0954,0.0956,0.0999,0.1031,0.102,0.1033,0.1066,0.1068,0.1036,0.0994,0.0989,0.0985,0.1036,0.1035,0.1035,0,0,0.1154,0.1104,0.0974,0.095,0.093,0.0864,0.0852,0.0835,0.0827,0.0857,0.089,0.0925,0.094,0.0974,0.1003,0.1041,0.1001,0.1057,0.106,0.1063,0.1034,0.0993,0.0988,0.1034,0.1034,0.1034,0,0,0.1131,0.0968,0.0945,0.0894,0.0844,0.0742,0.0776,0.075,0.0806,0.0844,0.0849,0.0866,0.0942,0.095,0.0936,0.0995,0.098,0.0984,0.0991,0.0995,0.0999,0.0955,0.0929,0,0,0,0,0,0.0978,0.0968,0.0946,0.0921,0.08,0.0732,0.0726,0.0722,0.0738,0.0779,0.0819,0.0829,0.0942,0.093,0.094,0.096,0.1023,0.1025,0.1027,0.1046,0.105,0.1054,0,0,0,0,0,0,0.0966,0.0933,0.0946,0.0829,0.0801,0.0732,0.0719,0.0719,0.0737,0.0747,0.0814,0.0828,0.0837,0.0926,0.0935,0.0954,0.0926,0.1024,0.1026,0.1027,0.1047,0.1051,0.1054,0,0,0,0,0,0.0957,0.093,0.0736,0.0832,0.0808,0.0776,0.0723,0.0724,0.0774,0.0763,0.0779,0.0778,0.0833,0.0847,0.0931,0.095,0.0921,0.0924,0.1025,0.1026,0.1028,0.1049,0,0,0,0,0,0,0.095,0.0961,0.0733,0.0725,0.086,0.0787,0.0775,0.0728,0.0795,0.0802,0.0723,0.073,0.083,0.0842,0.0852,0.0947,0.0916,0.0919,0.0921,0.1026,0.1027,0.1028,0,0,0,0,0,0,0.0974,0.0955,0.073,0.0765,0.0762,0.0796,0.0785,0.0806,0.0801,0.0758,0.076,0.0726,0.0846,0.0838,0.0846,0.0877,0.0912,0.0915,0.0917,0.0919,0.1027,0.1028,0,0,0,0,0,0,0.0966,0.095,0.0768,0.0766,0.0765,0.0698,0.0823,0.0732,0.0732,0.076,0.074,0.0744,0.0843,0.0851,0.0841,0.0868,0.0874,0.0913,0.0915,0.0916,0.0917,0,0,0,0,0,0,0,0.096,0.1061,0.0755,0.0767,0.0766,0.0656,0.0656,0.0656,0.0733,0.0736,0.0739,0.0742,0.0895,0.0899,0.0902,0.086,0,0,0.0912,0.0914,0,0,0,0,0,0,0,0,0.1069,0.1063,0.0755,0.0752,0.075,0.0656,0.0656,0.0656,0.0734,0.0736,0.0739,0.0741,0.0896,0.0899,0.0902,0,0,0,0,0,0,0,0,0,0,0,0,0,0,0,0.0755,0.0752,0,0.0656,0.0656,0.0656,0.0734,0.0736,0.0738,0.074,0.0897,0.0899,0.0901,0,0,0,0,0,0,0,0,0,0,0,0,0,0,0,0,0,0,0,0,0,0,0,0,0,0,0,0,0,0,0,0,0,0,0,0,0,0,0,0,0,0,0,0,0,0,0,0,0,0,0,0,0,0,0,0,0,0,0,0,0,0,0,0,0,0,0,0,0]}]],[[{"header":{"parameterUnit":"kt","parameterCategory":2,"dx":1,"dy":1,"la1":30.253999710083008,"la2":30.299108505249023,"lo1":-89.0895004272461,"lo2":-89.04439544677734,"nx":28,"ny":28,"refTime":"2022-09-18T21:00:00:Z","depth":"4","parameterNumber":2,"parameterNumberName":"U-component_of_CURRENTS"},"data":[-0.0217,-0.0216,-0.0203,-0.0165,-0.0134,-0.0097,-0.0069,-0.003,0.0026,0.0095,0.0202,0.0288,0.0479,0.0416,0.0683,0.0719,0.064,0.0956,0.0958,0.0799,0.0785,0.0773,0.0741,0,0,0,0,0,-0.0202,-0.0202,-0.0194,-0.0166,-0.014,-0.0114,-0.0085,-0.0068,-0.0007,0.0083,0.0124,0.0273,0.0481,0.0563,0.0684,0.0712,0.0759,0.0854,0.0713,0.079,0.0775,0.0749,0,0,0,0,0,0,-0.0179,-0.0183,-0.0171,-0.0158,-0.0138,-0.0105,-0.0093,-0.0031,0.0004,0.0111,0.0156,0.0317,0.0416,0.0591,0.0695,0.0806,0.0757,0.0727,0.0716,0.0702,0.0676,0.0693,0.084,0,0,0,0,0,-0.0152,-0.0152,-0.0143,-0.0127,-0.0117,-0.0099,-0.0072,-0.0055,0.0003,0.0037,0.0162,0.028,0.0443,0.0547,0.071,0.0745,0.0683,0.0766,0.0755,0.0616,0.0629,0.0633,0.0619,0.0717,0.0715,0.0713,0.0713,0,-0.0132,-0.0127,-0.0106,-0.01,-0.0089,-0.0076,-0.0064,-0.0029,-0.0006,0.0088,0.011,0.0252,0.0321,0.0515,0.0571,0.0674,0.0679,0.0728,0.0581,0.0604,0.0614,0.0603,0.0593,0.07,0.0701,0.0702,0.0703,0,-0.0125,-0.0102,-0.009,-0.0061,-0.0052,-0.005,-0.0022,-0.0009,0.003,0.0071,0.0087,0.0175,0.0281,0.0359,0.043,0.0457,0.0521,0.058,0.0467,0.0479,0.0574,0.0569,0.068,0.0684,0.0688,0.0692,0.0694,0,-0.0101,-0.0093,-0.0061,-0.0052,-0.0044,-0.0015,-0.0004,0.0019,0.0049,0.0077,0.0114,0.0148,0.018,0.0258,0.0273,0.0384,0.0344,0.0407,0.043,0.0271,0.0267,0.0278,0.0274,0.0297,0.0296,0.0296,0.0295,0,-0.0092,-0.0063,-0.0051,-0.0038,-0.0004,0.0003,0.0015,0.0049,0.0062,0.01,0.0124,0.0136,0.0163,0.0175,0.0246,0.0203,0.0317,0.0254,0.0387,0.0395,0.0272,0.027,0.0294,0.0294,0.0294,0.0293,0.0293,0,-0.0069,-0.0049,-0.0034,-0.0001,0.0003,0.0011,0.0038,0.0051,0.0082,0.0099,0.0112,0.013,0.0138,0.0131,0.0169,0.0154,0.0191,0.0211,0.0215,0.0314,0.0329,0.0262,0.0277,0.0276,0.0276,0.0275,0.0275,0,-0.0059,-0.0036,-0.0016,-0.0003,0.0011,0.0037,0.0044,0.0069,0.0089,0.0109,0.0108,0.012,0.0113,0.0123,0.0124,0.0149,0.0173,0.0139,0.0214,0.0217,0.031,0.0347,0.0161,0.0265,0.0266,0.0267,0.0268,0,-0.0047,-0.0009,-0.001,0.0004,0.0033,0.0042,0.0055,0.0075,0.0088,0.0102,0.0115,0.011,0.012,0.012,0.0125,0.0132,0.0163,0.015,0.0151,0.0197,0.0221,0.0324,0.034,0.0159,0.016,0.016,0.0261,0,-0.0013,-0.0002,-0.0001,0.0023,0.0034,0.0044,0.0063,0.0079,0.0091,0.0106,0.0117,0.012,0.0129,0.0128,0.0133,0.0138,0.0166,0.0154,0.016,0.0157,0.0204,0.0209,0.015,0.015,0.015,0.015,0,0,-0.0007,0.0005,0.0024,0.0035,0.0043,0.0061,0.0069,0.0079,0.0107,0.0118,0.0121,0.0135,0.0139,0.0139,0.0139,0.0142,0.017,0.0152,0.0156,0.0157,0.0157,0.0201,0.0206,0.015,0.015,0.015,0.0151,0,0.0009,0.0018,0.0024,0.0039,0.0054,0.0063,0.0069,0.0091,0.0101,0.0117,0.0126,0.0132,0.0148,0.0148,0.0148,0.0145,0.017,0.0151,0.0147,0.0157,0.0157,0.0157,0.0201,0.0205,0.0151,0.0151,0.0151,0,0.0025,0.0037,0.0041,0.0058,0.0062,0.007,0.0081,0.0091,0.01,0.0116,0.0131,0.014,0.0145,0.0152,0.0157,0.0159,0.0176,0.0162,0.0161,0.0161,0.0172,0.0172,0.0172,0.017,0.017,0.017,0,0,0.0037,0.0048,0.0063,0.0062,0.0065,0.0077,0.008,0.0094,0.0108,0.0115,0.013,0.014,0.0144,0.0152,0.0159,0.0166,0.0182,0.0164,0.0163,0.0162,0.0162,0.0172,0.0172,0.017,0.017,0.017,0,0,0.0042,0.0064,0.0068,0.0068,0.0079,0.009,0.0086,0.0099,0.0114,0.0116,0.0129,0.0134,0.0146,0.0152,0.0154,0.0158,0.0161,0.0161,0.0156,0.0155,0.0154,0.0152,0.0159,0,0,0,0,0,0.0065,0.0062,0.0065,0.0066,0.0075,0.0086,0.0088,0.0096,0.01,0.0108,0.0121,0.0126,0.0153,0.0155,0.0158,0.0156,0.0173,0.0172,0.0172,0.0167,0.0166,0.0165,0,0,0,0,0,0,0.0065,0.0067,0.0065,0.0074,0.0076,0.0086,0.009,0.0092,0.01,0.0103,0.0123,0.0126,0.0134,0.0154,0.0157,0.0154,0.0158,0.0173,0.0172,0.0172,0.0166,0.0165,0.0165,0,0,0,0,0,0.0066,0.0067,0.0081,0.0074,0.0076,0.0084,0.009,0.0093,0.0104,0.0113,0.0117,0.0111,0.0133,0.0137,0.0155,0.0152,0.0156,0.0157,0.0172,0.0172,0.0172,0.0166,0,0,0,0,0,0,0.0066,0.007,0.0082,0.0082,0.0078,0.0084,0.0087,0.0093,0.0115,0.0118,0.0101,0.0102,0.0133,0.0136,0.0139,0.0151,0.0154,0.0155,0.0156,0.0172,0.0172,0.0172,0,0,0,0,0,0,0.0069,0.0071,0.0082,0.0087,0.0088,0.0084,0.0087,0.0095,0.0116,0.0102,0.0104,0.0101,0.0133,0.0135,0.0137,0.015,0.0153,0.0154,0.0155,0.0155,0.0172,0.0172,0,0,0,0,0,0,0.007,0.0071,0.0087,0.0088,0.0089,0.0094,0.0093,0.0106,0.0106,0.0102,0.0108,0.0109,0.0132,0.0134,0.0136,0.0147,0.0149,0.0153,0.0154,0.0154,0.0155,0,0,0,0,0,0,0,0.007,0.0063,0.0078,0.0088,0.0089,0.0084,0.0084,0.0084,0.0107,0.0107,0.0108,0.0108,0.0148,0.0149,0.015,0.0146,0,0,0.0153,0.0154,0,0,0,0,0,0,0,0,0.0062,0.0063,0.0078,0.0078,0.0078,0.0084,0.0084,0.0084,0.0107,0.0107,0.0108,0.0108,0.0148,0.0149,0.015,0,0,0,0,0,0,0,0,0,0,0,0,0,0,0,0.0078,0.0078,0,0.0084,0.0084,0.0084,0.0107,0.0107,0.0108,0.0108,0.0148,0.0149,0.015,0,0,0,0,0,0,0,0,0,0,0,0,0,0,0,0,0,0,0,0,0,0,0,0,0,0,0,0,0,0,0,0,0,0,0,0,0,0,0,0,0,0,0,0,0,0,0,0,0,0,0,0,0,0,0,0,0,0,0,0,0,0,0,0,0,0,0,0,0]}],[{"header":{"parameterUnit":"kt","parameterCategory":2,"dx":1,"dy":1,"la1":30.253999710083008,"la2":30.299108505249023,"lo1":-89.0895004272461,"lo2":-89.04439544677734,"nx":28,"ny":28,"refTime":"2022-09-18T21:00:00:Z","depth":"4","parameterNumber":3,"parameterNumberName":"V-component_of_CURRENTS"},"data":[-0.0636,-0.064,-0.0632,-0.0623,-0.0627,-0.0639,-0.0639,-0.0634,-0.0584,-0.0559,-0.0536,-0.0517,-0.0495,-0.0512,-0.0474,-0.0477,-0.0506,-0.0498,-0.0497,-0.0566,-0.0573,-0.0579,-0.0507,0,0,0,0,0,-0.0648,-0.0641,-0.0644,-0.0646,-0.0658,-0.0669,-0.066,-0.0654,-0.0632,-0.0572,-0.0565,-0.0533,-0.0504,-0.0503,-0.0478,-0.0534,-0.0557,-0.0506,-0.0565,-0.057,-0.0578,-0.0505,0,0,0,0,0,0,-0.0654,-0.0658,-0.0662,-0.0667,-0.0677,-0.0676,-0.068,-0.0638,-0.0625,-0.0601,-0.0576,-0.0567,-0.0578,-0.0556,-0.0575,-0.0577,-0.0528,-0.0524,-0.0534,-0.0541,-0.0476,-0.0475,-0.0425,0,0,0,0,0,-0.0643,-0.0661,-0.0667,-0.0675,-0.0685,-0.0688,-0.0685,-0.0675,-0.0662,-0.0675,-0.0619,-0.0608,-0.06,-0.0606,-0.0635,-0.0622,-0.0717,-0.0687,-0.0688,-0.0597,-0.0608,-0.0613,-0.0616,-0.0605,-0.0606,-0.0606,-0.0607,0,-0.0623,-0.064,-0.0658,-0.0663,-0.0674,-0.0688,-0.0688,-0.0693,-0.068,-0.068,-0.0674,-0.0692,-0.0689,-0.068,-0.0702,-0.071,-0.067,-0.0707,-0.061,-0.062,-0.0623,-0.0624,-0.0625,-0.0613,-0.0612,-0.0612,-0.0611,0,-0.061,-0.0613,-0.0634,-0.0643,-0.065,-0.0667,-0.0671,-0.0673,-0.0688,-0.0689,-0.0706,-0.072,-0.0726,-0.0762,-0.077,-0.0745,-0.0732,-0.0699,-0.0794,-0.0801,-0.0636,-0.0635,-0.0622,-0.062,-0.0618,-0.0617,-0.0615,0,-0.0577,-0.0598,-0.0594,-0.061,-0.0632,-0.0629,-0.0652,-0.066,-0.0669,-0.0667,-0.0692,-0.069,-0.073,-0.0754,-0.075,-0.0722,-0.0763,-0.0641,-0.0641,-0.069,-0.0689,-0.0688,-0.0687,-0.0691,-0.069,-0.069,-0.0689,0,-0.0551,-0.0556,-0.0576,-0.0582,-0.0586,-0.0604,-0.0611,-0.0618,-0.0626,-0.0656,-0.0669,-0.0692,-0.0726,-0.0712,-0.0734,-0.0712,-0.0744,-0.0719,-0.0645,-0.0644,-0.0684,-0.0684,-0.0688,-0.0688,-0.0688,-0.0688,-0.0688,0,-0.0523,-0.0519,-0.0542,-0.0547,-0.055,-0.0569,-0.0585,-0.06,-0.0614,-0.0628,-0.0641,-0.0661,-0.0687,-0.0665,-0.0686,-0.0679,-0.0671,-0.0671,-0.0673,-0.0605,-0.0609,-0.0695,-0.0719,-0.0719,-0.0719,-0.0719,-0.0719,0,-0.0505,-0.0507,-0.0496,-0.052,-0.0524,-0.0526,-0.0542,-0.0555,-0.057,-0.0594,-0.0607,-0.0647,-0.0641,-0.0668,-0.065,-0.0682,-0.0668,-0.0653,-0.0673,-0.0675,-0.0601,-0.0603,-0.0644,-0.0715,-0.0716,-0.0716,-0.0716,0,-0.0481,-0.0465,-0.047,-0.0474,-0.0477,-0.0484,-0.0504,-0.0518,-0.0532,-0.0563,-0.0586,-0.0628,-0.0636,-0.0653,-0.0668,-0.0655,-0.0668,-0.0655,-0.0655,-0.0673,-0.0677,-0.061,-0.0606,-0.0646,-0.0645,-0.0645,-0.0714,0,-0.0437,-0.0447,-0.0451,-0.0446,-0.0452,-0.047,-0.047,-0.0492,-0.0513,-0.0525,-0.0567,-0.0599,-0.0633,-0.0646,-0.0659,-0.0668,-0.0682,-0.0667,-0.0644,-0.0657,-0.0691,-0.0692,-0.0671,-0.0671,-0.0671,-0.0671,0,0,-0.0423,-0.0424,-0.0409,-0.0409,-0.0415,-0.0417,-0.043,-0.0447,-0.0483,-0.0496,-0.0507,-0.0577,-0.0604,-0.0631,-0.0643,-0.0665,-0.0671,-0.0651,-0.066,-0.0659,-0.0658,-0.0689,-0.0691,-0.0671,-0.0671,-0.0671,-0.0671,0,-0.0395,-0.04,-0.0402,-0.0403,-0.0404,-0.0408,-0.0413,-0.0429,-0.0446,-0.0491,-0.0507,-0.0537,-0.0596,-0.0607,-0.0622,-0.0662,-0.066,-0.0678,-0.0668,-0.066,-0.0659,-0.0658,-0.0689,-0.069,-0.0671,-0.0671,-0.0671,0,-0.037,-0.0361,-0.0368,-0.0368,-0.0376,-0.0383,-0.038,-0.0399,-0.0416,-0.0436,-0.0482,-0.051,-0.054,-0.058,-0.0601,-0.0591,-0.0642,-0.0636,-0.0637,-0.0628,-0.0619,-0.0618,-0.0618,-0.062,-0.0619,-0.0619,0,0,-0.0349,-0.0352,-0.0346,-0.0363,-0.0361,-0.0373,-0.0383,-0.0391,-0.0415,-0.0431,-0.0458,-0.0492,-0.0524,-0.0541,-0.0576,-0.0615,-0.0615,-0.0629,-0.0631,-0.0633,-0.0625,-0.0617,-0.0617,-0.0618,-0.0618,-0.0618,0,0,-0.0343,-0.033,-0.0332,-0.0346,-0.0351,-0.036,-0.0374,-0.0382,-0.042,-0.0431,-0.0449,-0.0458,-0.0505,-0.0519,-0.0501,-0.0563,-0.0554,-0.0559,-0.0547,-0.0551,-0.0553,-0.0533,-0.0493,0,0,0,0,0,-0.0314,-0.0327,-0.0329,-0.033,-0.035,-0.0359,-0.0364,-0.0372,-0.038,-0.0394,-0.0426,-0.0426,-0.051,-0.0496,-0.0506,-0.0519,-0.0603,-0.0606,-0.0608,-0.0604,-0.0607,-0.061,0,0,0,0,0,0,-0.0314,-0.0316,-0.0328,-0.0334,-0.0338,-0.0359,-0.0356,-0.036,-0.0378,-0.0379,-0.0421,-0.0427,-0.0438,-0.0491,-0.05,-0.0512,-0.049,-0.0604,-0.0607,-0.0609,-0.0605,-0.0608,-0.061,0,0,0,0,0,-0.0315,-0.0316,-0.0343,-0.0335,-0.0339,-0.0349,-0.0356,-0.0359,-0.0385,-0.0401,-0.0407,-0.0388,-0.0438,-0.0447,-0.0497,-0.0508,-0.0484,-0.0487,-0.0606,-0.0608,-0.0609,-0.0606,0,0,0,0,0,0,-0.0315,-0.0334,-0.0345,-0.0346,-0.0326,-0.0349,-0.0353,-0.0358,-0.0406,-0.0411,-0.0367,-0.0367,-0.0438,-0.0445,-0.0453,-0.0505,-0.0478,-0.0482,-0.0484,-0.0607,-0.0609,-0.061,0,0,0,0,0,0,-0.0332,-0.0335,-0.0346,-0.0334,-0.0335,-0.0349,-0.0352,-0.0389,-0.0408,-0.0372,-0.0372,-0.0366,-0.0427,-0.0444,-0.045,-0.0508,-0.0475,-0.0478,-0.048,-0.0482,-0.0608,-0.0609,0,0,0,0,0,0,-0.0334,-0.0337,-0.0334,-0.0335,-0.0335,-0.0361,-0.0384,-0.0408,-0.0382,-0.0371,-0.0381,-0.038,-0.0426,-0.0432,-0.0448,-0.0504,-0.0507,-0.0475,-0.0477,-0.0479,-0.048,0,0,0,0,0,0,0,-0.0335,-0.0313,-0.0326,-0.0335,-0.0336,-0.036,-0.0361,-0.0362,-0.0382,-0.0382,-0.0381,-0.038,-0.0456,-0.0459,-0.0463,-0.05,0,0,-0.0474,-0.0476,0,0,0,0,0,0,0,0,-0.0312,-0.0313,-0.0326,-0.0326,-0.0326,-0.036,-0.0361,-0.0362,-0.0382,-0.0382,-0.0381,-0.038,-0.0457,-0.046,-0.0463,0,0,0,0,0,0,0,0,0,0,0,0,0,0,0,-0.0326,-0.0326,0,-0.036,-0.0361,-0.0362,-0.0382,-0.0382,-0.0381,-0.0381,-0.0457,-0.046,-0.0462,0,0,0,0,0,0,0,0,0,0,0,0,0,0,0,0,0,0,0,0,0,0,0,0,0,0,0,0,0,0,0,0,0,0,0,0,0,0,0,0,0,0,0,0,0,0,0,0,0,0,0,0,0,0,0,0,0,0,0,0,0,0,0,0,0,0,0,0,0]}]]]